Location: Drebach
(50.6670°N, 13.0330°E)
Time: 04:18:06
(UTC+01:00)

ISS - Pass Details

Date: 27 January 2021
Orbit: 417 x 422 km, 51.6° (Epoch: 08 March)

Event Time Altitude Azimuth Distance (km) Brightness Sun altitude
Rises 19:36:21 0° 281° (W) 2,375 1.4 -25.9°
Reaches altitude 10° 19:38:27 10° 282° (WNW) 1,510 0.0 -26.3°
Enters shadow 19:40:06 27° 284° (WNW) 860 -1.6 -26.5°
